Theta_e
299 299 299 299 300 300 300 300 299 300 300 300 299 298 298 299 300 296 294 294 289 283 281 282 283 278 276 275 270 270 273 269 271 269 265 264 258 265 262 268 268 265 258 254 253 255 260 272 273 269 273 277 275 275
299 299 299 299 299 300 299 299 299 299 300 300 300 299 298 298 298 298 290 294 294 286 283 284 286 287 285 283 279 275 275 269 278 267 266 264 259 259 263 262 273 264 268 264 265 264 274 275 275 278 279 276 277 276
297 298 299 299 299 299 300 299 299 299 299 299 299 299 299 299 299 297 289 290 291 285 284 284 283 286 287 286 287 278 274 281 278 280 274 272 268 266 261 262 268 272 273 270 271 274 274 277 279 279 279 278 279 278
296 296 297 298 298 298 298 299 299 299 299 299 298 299 298 298 298 297 290 292 290 285 279 280 282 282 286 288 286 286 284 282 283 281 277 273 266 276 271 273 271 274 272 270 271 275 276 277 278 278 279 278 277 276
295 296 296 296 297 297 298 298 298 298 298 298 298 298 298 297 297 294 291 290 293 285 278 278 279 282 284 285 284 284 283 282 281 278 276 274 277 276 275 275 272 276 274 271 270 276 276 276 278 277 276 273 272 271
295 295 295 295 296 296 297 297 297 297 297 297 298 298 297 297 297 289 284 288 292 290 282 275 278 277 280 281 282 282 282 282 282 279 277 276 279 277 272 270 276 277 278 279 276 279 278 278 272 272 271 270 269 268
294 294 295 295 295 296 296 296 296 296 296 297 297 297 297 297 292 285 282 284 292 291 281 276 274 275 277 279 275 276 281 282 280 279 277 277 277 278 273 270 276 277 278 278 274 273 274 270 270 269 268 267 267 265
293 293 294 294 294 295 295 295 295 296 296 296 296 297 297 297 295 287 290 293 291 286 283 274 267 265 272 270 272 275 275 278 279 278 271 273 275 276 270 275 277 278 275 271 268 268 268 267 267 266 265 264 262 262
291 292 292 292 293 293 294 294 294 295 295 295 296 296 293 290 284 284 294 294 291 284 276 274 268 263 271 269 272 272 275 272 276 273 272 273 265 268 270 274 275 271 269 266 265 265 264 263 262 262 261 260 259 260
290 290 291 291 292 292 293 293 294 294 294 295 292 285 281 284 292 292 286 282 282 282 280 274 263 263 272 273 273 271 274 272 269 270 273 270 270 276 271 264 264 263 262 263 262 260 258 257 259 259 259 259 259 259
289 289 290 290 290 291 292 292 293 293 293 287 283 280 283 291 283 280 276 275 269 270 275 272 270 265 272 269 269 274 271 271 266 263 264 255 259 271 262 260 261 261 260 258 258 258 258 257 257 257 257 257 257 256
289 288 289 289 290 290 291 291 292 289 286 286 284 285 285 281 277 273 271 270 266 264 261 266 267 272 270 275 272 271 269 268 265 255 259 254 265 260 259 259 259 258 256 255 256 256 256 257 256 255 255 253 254 254
288 289 288 289 289 290 290 291 292 290 289 284 281 277 276 276 269 268 263 258 257 256 261 264 267 271 273 275 272 271 267 263 257 258 258 261 259 257 256 257 256 254 253 253 253 253 254 254 254 253 252 252 250 249
288 289 288 289 289 289 289 290 291 290 283 277 274 269 270 268 269 261 262 262 266 264 263 265 264 269 270 270 271 266 264 262 258 259 260 261 255 253 253 253 250 250 249 250 249 250 251 251 251 251 250 250 248 248
288 288 289 288 289 289 289 289 290 287 281 275 273 267 268 258 253 250 248 258 258 264 267 265 264 271 267 267 268 264 258 254 257 258 258 251 251 251 250 248 246 246 247 246 246 245 248 248 248 247 247 246 245 246
287 286 283 288 289 289 289 288 286 284 279 276 270 266 258 257 254 251 249 255 256 265 263 265 262 266 266 266 264 259 256 256 259 250 250 251 248 247 246 245 245 244 243 244 244 243 245 244 244 245 245 246 247 249
285 275 286 286 287 287 287 282 278 269 268 267 262 257 260 263 264 261 259 258 264 263 259 258 260 261 265 262 256 257 257 255 247 248 248 246 247 246 243 241 242 241 242 242 240 240 240 242 240 240 244 248 252 256
277 279 286 286 282 279 269 269 268 266 260 256 262 257 256 255 255 255 252 260 263 260 260 262 265 260 259 256 254 253 248 248 247 247 244 242 240 239 238 240 241 240 240 241 240 241 239 242 244 248 252 256 256 257
281 280 284 286 281 274 268 264 264 260 253 253 254 254 254 253 255 255 254 257 258 257 260 262 264 263 259 251 249 244 244 243 245 244 243 240 239 239 240 240 241 241 241 241 242 244 246 249 253 254 255 256 255 256
280 281 280 280 278 270 263 259 262 257 255 253 250 250 251 250 252 251 251 253 256 258 262 262 263 249 250 249 245 244 244 246 244 241 242 243 242 239 242 242 245 242 243 244 245 252 253 253 254 254 254 255 255 254
275 274 277 271 266 263 259 257 254 252 252 247 250 251 246 248 247 248 251 252 258 258 259 250 248 244 240 237 238 239 242 243 243 244 244 243 243 241 242 243 244 244 246 248 250 252 253 252 253 253 253 253 254 254
265 273 268 270 264 256 256 256 256 257 253 248 249 251 249 247 246 249 249 254 253 248 246 244 240 238 239 241 240 237 238 238 237 242 246 247 248 247 246 247 247 249 251 251 251 251 252 252 253 253 252 252 253 253
266 265 262 262 261 258 253 257 252 250 254 250 251 254 250 249 249 250 251 242 240 238 235 236 235 234 238 236 236 237 238 242 244 244 245 247 247 248 250 251 251 250 251 252 252 252 252 253 252 252 251 251 250 249
261 253 251 251 254 252 252 251 254 251 248 249 252 251 249 248 246 247 246 239 240 235 237 237 236 240 240 240 240 240 240 239 241 243 246 248 251 251 251 252 252 252 252 252 252 252 252 251 252 251 251 249 248 246
255 245 247 244 246 248 248 250 251 252 249 247 249 247 244 238 243 242 243 243 239 237 237 234 236 238 240 238 239 241 242 246 248 248 250 251 251 251 252 253 252 253 252 251 251 251 250 250 250 250 249 248 247 247
243 240 242 236 242 245 241 243 241 242 241 243 241 239 237 241 245 246 243 242 238 239 239 242 244 244 245 244 245 246 248 249 250 251 251 252 252 252 251 251 251 252 252 251 250 249 249 250 248 248 249 249 249 247
242 240 239 239 241 240 241 239 238 240 241 242 240 241 242 245 244 246 242 239 241 241 244 248 248 247 246 244 245 249 251 253 252 253 253 252 253 253 253 251 251 253 252 251 249 248 248 248 248 248 248 249 248 247
238 236 241 239 238 234 237 236 238 240 240 239 239 243 245 246 245 246 244 244 243 243 243 244 247 247 246 248 253 253 252 252 251 252 252 252 252 252 252 253 253 257 252 251 251 250 248 248 248 248 248 248 249 246
238 234 236 239 238 240 238 239 239 238 238 237 242 243 244 243 242 241 245 244 242 246 247 246 246 247 250 252 253 253 251 250 250 250 249 249 250 252 250 250 251 251 250 250 253 256 252 251 250 250 249 249 249 242
239 235 241 239 242 243 240 235 235 232 232 234 233 239 240 242 240 236 240 242 244 246 247 248 249 251 251 251 250 250 247 247 249 248 246 246 248 247 244 245 247 247 245 243 248 249 251 249 246 243 245 244 244 244
233 232 237 237 239 236 233 229 228 229 230 230 228 234 238 238 241 242 243 244 245 244 246 247 246 246 248 244 242 242 246 243 240 244 245 246 247 247 247 247 248 246 244 244 245 244 245 243 242 243 243 244 245 246
231 232 236 240 238 233 229 230 229 232 230 234 235 231 239 242 245 248 246 244 244 245 248 247 246 247 244 244 241 241 247 247 248 249 249 249 250 250 250 250 247 245 244 245 245 244 244 244 245 246 247 246 246 245
236 234 233 236 239 238 234 234 235 236 234 235 235 231 231 235 243 244 242 238 242 241 242 243 244 243 244 244 248 251 252 251 251 255 256 255 255 254 253 251 248 246 246 247 247 247 246 246 247 247 246 246 246 246
Wind_Speed
23 24 24 24 24 24 21 21 21 23 22 21 20 18 21 19 16 9 3 8 8 5 7 9 10 8 3 4 6 4 3 4 2 3 4 4 4 6 1 5 5 6 5 5 3 2 8 4 3 5 6 7 7 6
23 24 24 24 25 24 25 24 24 22 20 20 20 22 21 18 17 15 4 6 10 7 4 5 12 16 16 11 7 5 6 6 5 3 2 3 2 0 4 7 3 5 8 6 11 8 5 6 8 12 13 9 15 6
22 22 24 25 24 24 25 25 23 24 24 23 20 22 21 19 19 14 3 4 3 5 5 4 12 11 4 13 12 8 2 7 6 6 4 5 7 5 4 8 4 7 6 9 11 12 14 17 18 14 10 12 13 9
24 24 23 24 25 24 23 23 23 24 22 23 22 21 18 19 20 16 3 4 5 3 4 5 2 5 9 13 12 14 11 2 3 4 5 4 4 7 7 8 9 10 3 6 15 16 13 17 16 15 15 9 5 5
25 25 25 23 24 24 23 23 22 22 22 24 23 21 21 21 19 10 3 6 8 6 2 2 2 7 8 12 14 13 13 9 5 5 5 8 4 5 6 8 14 10 18 12 16 16 14 17 12 3 2 3 4 5
24 24 24 24 23 23 24 23 22 22 22 22 22 22 22 21 16 3 3 6 10 6 5 4 1 3 6 7 12 14 11 8 7 4 4 4 4 4 6 11 22 13 13 16 18 20 16 9 8 5 2 3 4 4
21 21 22 22 22 23 23 23 23 23 22 23 23 23 24 23 7 5 5 5 8 7 3 3 4 3 0 4 1 2 5 4 6 4 5 6 9 8 7 17 22 12 12 13 2 2 6 3 1 4 4 4 5 5
20 20 20 20 21 21 22 22 22 22 22 22 23 23 24 24 19 9 8 11 9 2 4 3 4 3 3 3 4 2 4 4 5 4 1 3 2 5 9 14 15 17 6 4 5 4 4 3 3 4 5 6 7 6
19 18 17 18 20 21 21 21 20 20 21 21 21 20 11 10 6 4 13 20 6 4 3 3 5 5 2 1 2 1 2 4 2 6 5 6 4 8 7 11 15 4 3 5 3 3 4 3 2 4 5 4 6 8
18 19 19 19 18 18 20 19 19 19 19 19 9 5 4 5 11 14 4 4 7 6 7 6 2 4 4 5 5 3 3 4 5 6 3 5 12 14 3 4 7 6 5 2 3 1 3 2 3 5 4 5 7 9
20 20 18 19 17 18 17 17 18 17 17 4 5 3 1 13 4 3 5 6 3 3 3 2 6 4 4 4 5 4 3 3 3 6 6 3 6 6 7 7 7 7 7 6 4 3 1 2 4 6 7 5 7 8
21 21 21 20 19 16 19 17 15 7 3 5 6 4 3 4 4 6 6 2 4 8 2 5 5 4 2 3 3 4 4 3 6 1 4 4 6 4 6 6 6 6 5 4 2 2 3 5 5 6 7 6 7 8
22 23 19 19 21 19 17 18 19 11 8 3 3 6 7 6 8 9 9 2 1 3 5 3 3 3 2 2 3 4 5 6 2 3 5 7 4 5 4 4 4 4 3 1 3 2 4 5 5 4 7 6 6 7
23 23 21 20 19 20 19 17 18 13 3 3 5 6 6 5 5 6 7 8 6 4 7 4 3 3 1 4 3 4 2 3 2 3 8 3 4 5 3 2 2 2 3 4 5 5 6 6 7 6 6 6 6 8
21 21 20 19 18 17 18 17 17 5 3 4 3 6 5 1 3 1 1 4 1 5 6 3 3 4 2 3 3 4 2 5 8 8 5 2 4 3 2 1 1 4 3 3 3 4 5 6 6 7 7 6 6 7
10 4 5 12 16 15 17 14 5 3 1 3 4 4 1 3 3 2 0 2 3 4 3 3 4 4 5 4 5 8 7 9 7 4 2 4 4 1 2 2 4 4 4 5 5 4 5 5 6 6 7 7 7 7
6 1 11 4 8 3 2 3 3 5 3 3 2 3 3 3 1 1 2 3 3 4 4 4 6 9 2 3 3 5 8 5 4 2 1 1 3 2 3 3 4 4 5 5 3 4 4 5 3 3 5 6 5 5
4 5 10 7 6 7 4 6 4 4 5 2 1 2 2 3 3 2 3 2 2 3 4 6 4 3 6 7 6 4 2 2 1 2 2 3 3 3 3 4 4 4 4 5 4 5 4 4 4 4 5 6 6 4
7 8 12 6 8 5 4 4 4 4 3 1 2 2 2 2 2 2 2 2 2 1 1 3 4 4 5 3 4 2 2 3 4 3 2 2 3 3 3 4 4 3 3 3 3 3 3 4 3 4 4 5 4 3
5 16 13 14 8 4 5 4 3 5 3 2 3 2 3 2 1 1 2 3 2 1 2 3 3 3 2 2 2 3 3 4 4 3 2 3 2 1 3 2 2 3 3 4 3 4 3 4 4 4 4 4 4 4
6 6 12 7 5 7 5 2 4 3 2 3 2 2 1 1 2 1 2 3 1 1 1 2 1 1 2 2 0 2 3 3 3 4 4 2 2 2 1 2 2 1 1 2 2 3 4 4 4 5 5 4 4 4
1 8 3 5 5 4 6 5 3 3 4 1 2 2 3 3 3 3 3 1 1 1 1 3 3 3 0 1 1 2 3 5 3 3 3 2 2 0 1 1 1 1 1 1 2 2 3 3 4 4 4 4 5 3
6 5 5 5 5 6 2 2 5 5 3 0 1 2 3 2 2 3 1 0 3 2 2 2 2 2 2 1 2 2 2 4 2 2 2 2 2 3 2 2 1 0 1 0 1 2 2 4 4 4 4 3 3 3
12 9 8 6 6 3 2 4 2 3 3 3 2 3 1 1 4 3 2 3 3 2 1 2 2 3 3 4 2 2 3 3 2 0 2 2 2 2 2 2 2 2 1 2 2 2 2 2 4 3 3 3 3 2
9 11 6 7 4 4 5 3 3 1 3 2 2 0 2 2 2 2 1 4 2 1 1 0 2 2 4 2 2 3 3 3 3 2 2 3 1 0 1 2 2 2 2 1 1 2 2 2 2 3 4 3 4 5
10 5 5 1 4 3 1 3 1 2 2 2 1 3 2 3 4 3 4 3 3 4 4 5 5 2 1 2 3 1 3 4 2 1 2 4 4 3 2 2 1 2 4 3 2 2 4 3 3 5 5 6 6 5
7 5 3 1 1 2 3 2 2 3 3 2 2 1 3 3 2 4 3 2 2 3 3 3 4 3 3 2 2 2 1 4 4 2 1 2 3 3 4 4 5 4 4 5 4 4 4 4 5 6 6 6 5 5
3 3 3 4 3 1 4 2 2 2 1 1 2 1 4 5 4 3 4 2 2 0 2 1 1 3 3 3 2 3 2 1 2 3 4 4 5 4 5 5 5 8 4 5 5 5 5 6 6 7 7 8 8 3
3 3 1 4 3 4 2 2 2 2 1 2 2 1 3 4 3 1 2 2 1 1 3 3 1 0 1 1 1 1 2 2 1 2 1 3 3 3 3 3 3 3 3 3 8 9 9 8 8 8 9 7 6 2
4 3 2 1 2 2 2 2 2 2 1 1 1 3 3 4 4 1 2 1 1 2 2 2 2 2 2 2 1 3 2 4 5 5 4 4 5 3 2 3 3 4 2 3 5 6 8 5 5 3 3 4 4 4
1 2 2 1 1 2 2 2 2 1 2 2 1 2 4 5 5 2 2 1 1 1 2 1 1 2 3 2 3 0 4 2 4 6 5 4 5 5 5 5 5 4 4 4 5 5 5 3 4 6 7 8 8 8
3 2 1 2 3 3 3 3 1 1 3 2 2 2 3 2 3 3 1 2 1 2 4 2 2 4 4 4 3 4 5 4 4 6 8 6 7 7 7 6 4 4 4 5 5 5 6 8 7 8 9 10 9 9
0 1 1 1 3 4 3 2 4 3 3 2 2 1 2 2 1 5 2 3 4 4 4 4 4 4 5 6 6 5 6 6 7 9 11 12 13 11 7 6 5 5 7 7 7 7 9 10 10 11 10 10 10 10
Wind_Direction
261 257 255 252 251 249 248 247 246 248 241 238 234 233 240 238 237 226 203 197 202 213 222 189 195 179 141 160 157 222 44 327 74 173 151 217 191 223 87 240 200 186 177 205 68 17 279 193 134 156 215 262 271 239
272 261 257 252 255 251 249 248 249 251 246 244 245 232 237 236 245 226 232 183 201 230 258 217 209 209 207 184 166 194 198 169 173 103 245 105 260 172 184 260 139 269 191 195 192 209 216 205 225 269 276 252 276 248
271 272 267 260 258 257 250 258 250 244 241 246 245 240 238 238 231 231 225 158 192 248 240 207 223 223 179 196 191 200 222 189 202 181 169 199 226 132 196 237 234 247 170 237 266 252 252 263 270 272 268 261 268 265
269 269 269 267 258 256 253 249 250 247 249 241 245 240 225 233 236 233 198 169 213 225 246 251 357 195 193 204 205 213 225 144 141 171 219 202 195 187 235 244 240 246 188 242 257 260 264 262 257 260 273 274 299 360
265 265 266 263 263 258 253 250 249 248 247 245 243 239 231 232 236 232 193 190 194 223 272 235 334 231 187 190 196 204 209 210 201 202 208 225 225 218 242 251 250 233 250 249 260 255 255 265 278 37 347 40 36 16
265 263 262 260 258 256 254 250 249 248 247 245 240 237 230 235 232 102 240 221 198 192 243 218 293 235 210 179 193 203 206 207 214 206 210 221 195 208 244 254 258 261 240 235 249 257 260 277 84 62 98 42 10 343
271 268 264 260 259 256 252 250 250 250 249 245 241 237 230 226 201 180 196 174 182 171 234 233 223 223 62 134 167 141 175 197 220 227 224 239 241 230 248 255 271 243 229 235 8 21 270 63 99 63 35 3 355 320
272 267 264 264 263 259 255 252 251 250 248 246 242 238 234 226 226 215 197 152 132 175 244 240 248 12 183 171 203 177 163 183 205 216 351 206 264 210 244 247 254 246 248 140 122 80 92 109 88 43 15 349 335 328
273 270 273 274 267 261 256 252 250 251 251 247 241 235 240 217 198 195 176 190 170 186 235 194 160 230 148 188 120 155 166 185 196 212 204 154 222 219 219 241 241 217 172 141 117 108 91 83 43 11 352 340 313 312
264 265 265 264 271 273 261 251 248 247 250 245 233 205 193 184 148 132 136 185 207 193 205 196 88 214 135 174 186 134 188 213 212 221 121 207 244 247 209 75 93 94 78 68 131 182 26 360 349 326 309 303 298 304
265 258 262 267 258 259 262 250 249 251 246 203 205 166 95 156 85 143 184 183 206 211 203 98 186 153 221 147 197 222 184 187 227 251 155 248 263 232 118 107 97 93 94 79 73 85 149 209 281 292 298 297 299 297
273 272 260 255 259 251 248 243 240 253 188 217 125 126 135 185 158 177 179 156 149 210 266 150 202 181 189 132 142 177 198 157 235 125 92 268 246 80 97 104 87 68 65 69 50 4 334 305 305 299 296 292 289 289
264 260 262 256 248 248 249 242 236 201 178 114 176 195 156 165 188 177 170 259 174 184 201 170 176 144 137 186 185 192 202 217 62 83 225 229 167 152 137 126 105 59 34 17 352 328 290 287 291 275 285 274 279 281
271 256 251 250 251 239 240 241 242 215 173 188 155 213 189 174 189 177 170 167 213 145 149 137 116 147 185 183 173 196 168 115 148 227 230 230 132 138 132 87 90 359 337 310 295 301 308 303 293 284 273 278 278 279
284 255 249 243 233 236 234 234 235 195 212 173 191 212 200 280 28 196 161 96 257 131 128 94 66 139 177 208 184 103 74 239 204 226 229 208 112 126 157 133 230 271 272 282 276 281 280 279 276 284 277 265 255 267
283 260 247 236 236 223 218 218 202 190 247 191 121 141 66 61 324 352 37 123 238 122 80 58 128 155 194 191 170 209 147 219 241 208 163 123 136 165 229 233 262 269 266 262 265 243 269 276 266 266 297 285 272 255
96 49 343 300 224 233 6 110 89 47 54 88 95 3 360 59 37 102 161 171 206 96 156 126 149 202 86 148 230 193 207 216 186 164 158 117 159 217 233 265 275 283 296 289 281 301 270 272 289 333 311 288 275 284
43 324 355 341 78 72 41 25 69 71 72 27 198 99 52 33 101 351 312 360 117 127 119 182 119 170 188 184 245 223 157 119 85 127 185 214 219 249 216 251 281 271 273 285 271 283 290 313 316 286 291 313 311 306
36 19 345 107 99 92 84 45 10 98 77 70 50 22 61 82 41 7 336 4 58 25 124 88 161 199 217 198 171 203 179 187 165 187 216 252 221 225 256 255 268 287 281 274 303 290 279 275 304 326 319 318 325 327
60 33 36 48 57 81 84 34 43 83 111 125 51 38 77 102 262 304 21 356 27 123 171 172 210 195 165 195 186 152 145 135 123 77 333 293 243 201 249 220 260 278 310 330 328 352 350 352 354 340 333 341 336 343
44 0 30 57 53 56 76 53 71 127 135 100 251 110 176 96 55 77 176 329 96 313 140 75 103 258 310 257 5 102 101 130 162 150 173 172 255 213 295 289 256 355 50 349 348 2 9 354 335 338 336 341 345 353
297 24 63 39 85 59 69 7 65 56 63 174 44 16 31 23 14 25 325 25 36 62 158 158 206 191 68 98 189 151 157 118 91 98 95 98 103 122 270 244 60 352 360 7 8 352 332 336 337 339 339 339 346 351
28 34 52 20 83 53 11 333 66 359 91 12 281 94 45 25 353 339 20 180 251 245 222 188 204 217 134 266 92 70 138 130 132 167 171 199 225 234 231 203 186 248 318 3 327 309 319 336 335 336 329 333 336 330
29 47 36 44 20 81 341 42 45 70 60 36 57 98 76 330 344 45 225 260 247 295 210 203 154 71 20 29 60 222 206 154 121 79 199 169 197 232 203 219 195 207 225 284 285 303 312 317 328 324 326 328 325 309
71 357 24 12 1 56 47 43 16 81 94 32 111 67 274 344 74 35 244 272 301 273 232 357 77 88 139 235 273 264 203 159 149 172 227 189 181 271 238 234 226 210 170 243 259 283 292 294 299 304 309 305 316 318
68 320 52 276 328 73 205 82 44 165 112 63 282 265 14 72 64 250 241 235 225 201 186 184 169 147 301 192 138 170 232 181 146 195 256 188 197 197 203 220 258 261 191 199 204 259 283 289 290 301 298 299 297 299
62 337 330 319 125 117 59 31 66 89 87 135 233 47 67 78 263 261 288 239 209 230 207 171 148 145 178 206 240 258 163 161 187 203 196 207 218 203 199 211 227 238 160 183 201 213 248 274 281 279 280 285 259 258
122 25 60 307 29 2 126 78 63 86 236 261 77 69 141 173 226 250 219 266 224 250 105 90 132 147 164 200 183 149 174 187 280 276 268 248 231 218 213 225 232 234 207 208 224 223 224 241 256 266 268 270 282 244
37 332 7 10 5 35 64 123 200 247 238 112 121 258 257 242 248 272 317 328 348 86 96 105 329 134 95 69 140 205 154 151 129 337 320 290 325 291 196 212 224 224 221 231 255 245 235 236 241 243 248 253 267 269
347 360 33 35 59 8 274 165 235 270 278 208 287 307 297 276 257 276 315 6 101 204 199 164 136 158 175 170 279 300 246 201 195 176 197 239 232 256 276 253 252 249 227 224 259 273 282 298 310 314 296 287 274 270
319 18 39 50 225 261 249 295 309 342 15 11 341 157 256 309 306 230 249 230 229 110 117 141 200 199 182 189 184 213 305 290 222 241 248 261 268 262 254 246 240 230 220 228 240 246 259 257 242 266 273 273 271 266
9 84 90 1 306 287 25 42 359 49 332 28 299 321 306 306 307 292 173 138 110 212 227 201 196 249 215 224 227 243 231 264 249 240 242 244 253 252 252 251 236 218 227 237 234 237 239 248 261 260 267 270 268 267
285 196 193 308 353 4 329 42 15 356 18 12 305 225 233 192 201 282 301 192 196 208 224 223 235 244 239 235 238 254 245 247 257 265 265 259 259 263 264 249 231 221 231 240 243 240 246 248 256 259 260 260 263 265